Location: Hartha
(51.1030°N, 12.9600°E)
Time: 15:16:33
(UTC+02:00)

ISS - Visible Passes

Search period start: 20 April 2024 00:00
Search period end: 30 April 2024 00:00
Orbit: 412 x 418 km, 51.6° (Epoch: 20 April)

Date Brightness Start Highest point End Pass type
(mag) Time Alt. Az. Time Alt. Az. Time Alt. Az.
23 Apr -1.3 04:45:09 10° S 04:47:00 14° SE 04:48:53 10° ESE visible
25 Apr -2.3 04:42:52 13° SSW 04:45:20 28° SSE 04:48:13 10° E visible
26 Apr -1.9 03:55:35 18° SSE 03:56:24 19° SE 03:58:52 10° E visible
27 Apr -1.2 03:08:12 12° SE 03:08:12 12° SE 03:09:05 10° ESE visible
27 Apr -3.3 04:41:02 15° SW 04:43:36 50° SSE 04:46:50 10° E visible
28 Apr -2.9 03:53:34 29° S 03:54:29 36° SSE 03:57:34 10° E visible
29 Apr -2.1 03:06:01 23° SE 03:06:01 23° SE 03:08:11 10° E visible
29 Apr -3.8 04:38:51 13° WSW 04:41:45 79° SSE 04:45:06 10° E visible
